Regional Weather Roundup
Issued by NWS

Home | Current Version | Previous Version | Text Only | Print | Product List | Glossary Off
Versions: 1 2 3 4 5 6 7 8 9 10 11 12 13 14 15 16 17 18 19 20 21 22 23 24 25 26 27 28 29 30 31 32 33 34 35 36 37 38 39 40 41 42 43 44 45 46 47 48 49 50

000
ASUS45 KPSR 300000
RWRAZ

PRELIMINARY ARIZONA REGIONAL HOURLY WEATHER ROUNDUP
NATIONAL WEATHER SERVICE PHOENIX AZ
500 PM MST THU JAN 29 2015

NOTE: FAIR INDICATES FEW OR NO CLOUDS BELOW 12,000 FEET WITH NO
SIGNIFICANT WEATHER AND/OR OBSTRUCTIONS TO VISIBILITY.

AZZ001>003-036-300100-
NORTHWEST ARIZONA

CITY           SKY/WX    TMP DP  RH WIND       PRES   REMARKS
KINGMAN        CLOUDY    58  39  49 NE7       30.08S
6HR MIN TEMP:  55; 6HR MAX TEMP:  60;

$$

AZZ004>008-015-016-018-300100-
NORTH CENTRAL ARIZONA

CITY           SKY/WX    TMP DP  RH WIND       PRES   REMARKS
GRAND CANYON   CLOUDY    46  31  55 E10       30.20R
6HR MIN TEMP:  45; 6HR MAX TEMP:  50;

PRESCOTT       LGT RAIN  55  35  47 S8        30.13R
6HR MIN TEMP:  51; 6HR MAX TEMP:  61; 6HR PCP: TRACE;

FLAGSTAFF      NOT AVBL
PAYSON         CLOUDY    54  39  58 VRB6      30.17R
$$

AZZ009>014-017-300100-
NORTHEAST ARIZONA

CITY           SKY/WX    TMP DP  RH WIND       PRES   REMARKS
WINSLOW        NOT AVBL
SAINT JOHNS    CLOUDY    59  33  37 S13       30.16R
6HR MIN TEMP:  47; 6HR MAX TEMP:  63;

WINDOW ROCK    CLOUDY    49  30  48 E8        30.26S
6HR MIN TEMP:  47; 6HR MAX TEMP:  52;

SHOW LOW       CLOUDY    50  36  57 S12G23    30.22S
$$

AZZ023-300100-
GREATER PHOENIX AREA

CITY           SKY/WX    TMP DP  RH WIND       PRES   REMARKS
PHOENIX        LGT RAIN  67  55  65 SE6       30.01R
6HR MIN TEMP:  65; 6HR MAX TEMP:  71; 6HR PCP: TRACE;

GLENDALE       CLOUDY    66  54  63 S7        30.03R
DEER VALLEY    CLOUDY    67  46  47 S6        30.02R
6HR MIN TEMP:  63; 6HR MAX TEMP:  70; 6HR PCP: TRACE;

SCOTTSDALE     LGT RAIN  68  46  45 CALM      30.04R
6HR MIN TEMP:  64; 6HR MAX TEMP:  70; 6HR PCP: TRACE;

MESA-FALCON    CLOUDY    64  46  52 SW6       30.02R
MESA-GATEWAY   CLOUDY    64  57  77 SW5       30.05R
CHANDLER       DRIZZLE   64  57  77 SW12      30.04R
$$

AZZ027-028-300100-
SOUTHWEST MARICOPA COUNTY AND PINAL COUNTY

CITY           SKY/WX    TMP DP  RH WIND       PRES   REMARKS
CASA GRANDE    CLOUDY    61  55  82 SW7       30.07R
6HR MIN TEMP:  61; 6HR MAX TEMP:  66;

$$

AZZ503-504-507>509-300100-
SOUTHEAST ARIZONA

CITY           SKY/WX    TMP DP  RH WIND       PRES   REMARKS
TUCSON         CLOUDY    67  47  48 W8        30.04R
6HR MIN TEMP:  64; 6HR MAX TEMP:  69; 6HR PCP: TRACE;

DAVIS-MONTHAN  CLOUDY    67  47  47 W8        30.02S
6HR MIN TEMP:  66; 6HR MAX TEMP:  71; 6HR PCP: TRACE;

RYAN FIELD       N/A     64  54  68 W10       30.05R
NOGALES        CLOUDY    69  38  32 E6        30.04F
6HR MIN TEMP:  60; 6HR MAX TEMP:  71; 6HR PCP: TRACE;

SIERRA VISTA   CLOUDY    61  39  44 E9        30.10F
                                      6HR PCP: TRACE;

SAFFORD        CLOUDY    62  41  46 E10       30.11S
6HR MIN TEMP:  59; 6HR MAX TEMP:  63; 6HR PCP:  0.01;

$$

AZZ020-021-025-026-031-300100-
SOUTHWEST ARIZONA

CITY           SKY/WX    TMP DP  RH WIND       PRES   REMARKS
YUMA           NOT AVBL
$$

CAZ031-033-041-043-047-048-061-300100-
SOUTHERN CALIFORNIA

CITY           SKY/WX    TMP DP  RH WIND       PRES   REMARKS
DOWNTOWN L.A.  CLOUDY    72  47  40 CALM      29.98R
6HR MIN TEMP:  68; 6HR MAX TEMP:  75;

L.A. AIRPORT   CLOUDY    67  48  50 SW5       29.99R
6HR MIN TEMP:  67; 6HR MAX TEMP:  73;

SAN DIEGO      LGT RAIN  65  56  72 W3        30.01F
6HR MIN TEMP:  64; 6HR MAX TEMP:  70; 6HR PCP: TRACE;

BURBANK        CLOUDY    72  40  31 S7        29.99R
6HR MIN TEMP:  64; 6HR MAX TEMP:  73;

ONTARIO        CLOUDY    71  41  33 E7        30.00R
6HR MIN TEMP:  66; 6HR MAX TEMP:  76;

RIVERSIDE      CLOUDY    68  38  33 SE6       30.00S
6HR MIN TEMP:  68; 6HR MAX TEMP:  74;

PALM SPRINGS   CLOUDY    74  40  29 W3        29.99F
6HR MIN TEMP:  72; 6HR MAX TEMP:  76;

EL CENTRO NAS  CLOUDY    71  49  45 CALM      29.96F
6HR MIN TEMP:  67; 6HR MAX TEMP:  73;

IMPERIAL       CLOUDY    70  50  49 NW3       29.96F
6HR MIN TEMP:  67; 6HR MAX TEMP:  72;

BLYTHE         CLOUDY    70  46  42 N9        29.99S
6HR MIN TEMP:  63; 6HR MAX TEMP:  71;

$$

NVZ020-UTZ003-300100-
SOUTHERN NEVADA-UTAH

CITY           SKY/WX    TMP DP  RH WIND       PRES   REMARKS
LAS VEGAS      NOT AVBL
SALT LAKE CITY CLOUDY    42  36  79 W6        30.26S
6HR MIN TEMP:  38; 6HR MAX TEMP:  44;

$$

NMZ009-TXZ055-300100-
NEW MEXICO-WEST TEXAS

CITY           SKY/WX    TMP DP  RH WIND       PRES   REMARKS
ALBUQUERQUE    CLOUDY    48  23  37 E23       30.37S
6HR MIN TEMP:  48; 6HR MAX TEMP:  53;

EL PASO        CLOUDY    56  32  40 E18       30.29R
6HR MIN TEMP:  56; 6HR MAX TEMP:  62; 6HR PCP: TRACE;

$$


........................KEY........................
SKY/WX - SKY CONDITION/WEATHER
TMP    - TEMPERATURE IN FAHRENHEIT
DP     - DEW POINT IN FAHRENHEIT
RH     - RELATIVE HUMIDITY IN PERCENT
WIND   - DIRECTION AND SPEED IN MILES PER HOUR (MPH)
VRB    - VARIABLE WIND DIRECTION
PRES   - MEAN SEA LEVEL PRESSURE IN INCHES OF MERCURY
         F - FALLING PRESSURE   R - RISING PRESSURE
         S - STEADY PRESSURE
VSB    - VISIBILITY IN MILES
HX     - HEAT INDEX IN FAHRENHEIT
WCI    - WIND CHILL INDEX IN FAHRENHEIT
TC     - TEMPERATURE IN CELSIUS WHICH IS ALSO KNOWN AS
         TEMPERATURE IN CENTIGRADE
AFB    - AIR FORCE BASE
         LUKE AFB IS LUKE AIR FORCE BASE
         DAVIS-MONTHAN IS DAVIS-MONTHAN AIR FORCE BASE
NAS    - NAVAL AIR STATION
         EL CENTRO NAS IS EL CENTRO NAVAL AIR STATION
N/A    - NOT AVAILABLE



USA.gov is the U.S. government's official web portal to all federal, state and local government web resources and services.